| time (UTC) | temp C | wind direction | speed KPH | gust KPH | rain 1hr cm | rain 24hr cm | rain mn cm | humidity % | barometer mb |
| 20260504193054 | 8 | 114 | 20.9 | 33.8 | 0.00 | 0.08 | 0.08 | 82 | 988.2 |
| 20260504191600 | 7 | 119 | 20.9 | 30.6 | 0.00 | 0.08 | 0.08 | 85 | 988.1 |
| 20260504190110 | 6 | 124 | 17.7 | 29.0 | 0.00 | 0.08 | 0.08 | 87 | 988.2 |
| 20260504184616 | 6 | 139 | 14.5 | 32.2 | 0.00 | 0.08 | 0.08 | 88 | 988.4 |
| 20260504183054 | 6 | 111 | 12.9 | 25.7 | 0.00 | 0.08 | 0.08 | 89 | 988.3 |
| 20260504181555 | 6 | 115 | 12.9 | 30.6 | 0.03 | 0.08 | 0.08 | 89 | 988.5 |
| 20260504180053 | 5 | 85 | 16.1 | 29.0 | 0.03 | 0.08 | 0.08 | 91 | 988.4 |
| 20260504174559 | 5 | 114 | 12.9 | 27.4 | 0.03 | 0.08 | 0.08 | 92 | 988.4 |
| 20260504173057 | 5 | 56 | 12.9 | 29.0 | 0.03 | 0.08 | 0.08 | 92 | 988.4 |
| 20260504171549 | 5 | 100 | 14.5 | 30.6 | 0.03 | 0.05 | 0.05 | 90 | 988.4 |
| 20260504081552 | 0 | 34 | 4.8 | 8.0 | 0.00 | 0.05 | 0.00 | 76 | 988.7 |
| 20260504044558 | 0 | 156 | 4.8 | 14.5 | 0.00 | 0.08 | 0.00 | 76 | 988.3 |
| 20260504043052 | 0 | 151 | 3.2 | 12.9 | 0.00 | 0.08 | 0.00 | 76 | 988.5 |
| 20260504041554 | 0 | 113 | 4.8 | 12.9 | 0.00 | 0.08 | 0.00 | 78 | 988.4 |
| 20260504034559 | 0 | 136 | 4.8 | 11.3 | 0.00 | 0.08 | 0.08 | 77 | 988.2 |
| 20260504033125 | 0 | 104 | 3.2 | 12.9 | 0.00 | 0.08 | 0.08 | 78 | 988.2 |
| 20260504031549 | 0 | 126 | 3.2 | 11.3 | 0.00 | 0.08 | 0.08 | 77 | 988.2 |
| 20260504030049 | 0 | 120 | 6.4 | 12.9 | 0.00 | 0.08 | 0.08 | 76 | 988.3 |
| 20260504024550 | 0 | 159 | 4.8 | 8.0 | 0.00 | 0.08 | 0.08 | 76 | 988.3 |
| 20260504023101 | 0 | 124 | 1.6 | 6.4 | 0.00 | 0.08 | 0.08 | 76 | 988.3 |
| 20260504021552 | 0 | 144 | 3.2 | 8.0 | 0.00 | 0.08 | 0.08 | 76 | 988.3 |
| 20260504020057 | 0 | 125 | 3.2 | 8.0 | 0.00 | 0.08 | 0.08 | 76 | 988.2 |
| 20260504014551 | 0 | 156 | 3.2 | 9.7 | 0.00 | 0.08 | 0.08 | 76 | 988.3 |
| 20260504013104 | 0 | 152 | 6.4 | 14.5 | 0.00 | 0.08 | 0.08 | 75 | 988.3 |
| 20260504011552 | 0 | 170 | 8.0 | 12.9 | 0.00 | 0.08 | 0.08 | 75 | 988.2 |
| 20260504010104 | 0 | 158 | 6.4 | 14.5 | 0.00 | 0.08 | 0.08 | 74 | 988.1 |
| 20260504004605 | 0 | 166 | 12.9 | 20.9 | 0.00 | 0.08 | 0.08 | 73 | 987.8 |
| 20260504003051 | 1 | 149 | 14.5 | 24.1 | 0.00 | 0.08 | 0.08 | 72 | 987.5 |
| 20260504001554 | 1 | 160 | 12.9 | 24.1 | 0.00 | 0.08 | 0.08 | 71 | 987.4 |
| 20260504000053 | 1 | 162 | 17.7 | 27.4 | 0.00 | 0.08 | 0.08 | 70 | 987.2 |
| 20260503234551 | 2 | 168 | 22.5 | 33.8 | 0.00 | 0.08 | 0.08 | 66 | 987.2 |
| 20260503233054 | 2 | 180 | 25.7 | 40.2 | 0.00 | 0.08 | 0.08 | 65 | 987.1 |
| 20260503231549 | 2 | 144 | 24.1 | 41.8 | 0.00 | 0.08 | 0.08 | 64 | 987.2 |
| 20260503230057 | 2 | 155 | 24.1 | 43.5 | 0.00 | 0.08 | 0.08 | 65 | 987.0 |
| 20260503224549 | 2 | 166 | 19.3 | 35.4 | 0.00 | 0.08 | 0.08 | 64 | 986.8 |
| 20260503223057 | 2 | 163 | 24.1 | 40.2 | 0.00 | 0.08 | 0.08 | 62 | 986.7 |
| 20260503221552 | 3 | 131 | 20.9 | 41.8 | 0.00 | 0.08 | 0.08 | 61 | 986.8 |
| 20260503220050 | 2 | 163 | 25.7 | 40.2 | 0.00 | 0.08 | 0.08 | 63 | 986.6 |
| 20260503214550 | 2 | 175 | 24.1 | 35.4 | 0.00 | 0.08 | 0.08 | 62 | 986.6 |
| 20260503213104 | 3 | 158 | 19.3 | 33.8 | 0.00 | 0.08 | 0.08 | 62 | 986.6 |
| 20260503211549 | 3 | 175 | 19.3 | 41.8 | 0.00 | 0.08 | 0.08 | 59 | 986.6 |
| 20260503210057 | 3 | 130 | 24.1 | 37.0 | 0.00 | 0.08 | 0.08 | 59 | 986.5 |
| 20260503204555 | 3 | 164 | 17.7 | 37.0 | 0.00 | 0.08 | 0.08 | 58 | 986.6 |
| 20260503203051 | 3 | 175 | 25.7 | 40.2 | 0.00 | 0.08 | 0.08 | 58 | 986.4 |
| 20260503201553 | 3 | 156 | 19.3 | 40.2 | 0.00 | 0.08 | 0.08 | 58 | 986.4 |
| 20260503200057 | 3 | 146 | 25.7 | 43.5 | 0.00 | 0.08 | 0.08 | 56 | 986.5 |
| 20260503194556 | 4 | 141 | 20.9 | 37.0 | 0.00 | 0.08 | 0.08 | 57 | 986.6 |